La Porte, IN

2:19 AM CDT on July 23, 2017 (GMT -0500)
La Porte Municipal

Weather History for KPPO - September, 2014

Change the Weather History Date:

Wednesday, September 3, 2014

  Actual Average (KSBN) Record (KSBN)
Temperature  
Mean Temperature 68 °F -  
Max Temperature 81 °F 79 °F 96 °F (1913)
Min Temperature 56 °F 59 °F 39 °F (1908)
Cooling Degree Days 3    
Growing Degree Days 18 (Base 50)    
Moisture  
Dew Point 60 °F    
Average Humidity 75    
Maximum Humidity 100    
Minimum Humidity 47    
Precipitation  
Precipitation 0.00 in - - ()
Sea Level Pressure  
Sea Level Pressure 30.03 in    
Wind  
Wind Speed 2 mph (SSW)    
Max Wind Speed 9 mph    
Max Gust Speed -    
Visibility 8 miles    
Events Fog    
Averages and records for this station are not official NWS values.
T = Trace of Precipitation, MM = Missing Value Source: NWS Daily Summary

Daily Weather History Graph

Daily Weather History Graph

Search for Another Location

Airport or City:

Trip Planner

Search our weather history database for the weather conditions in past years. The results will help you decide how hot, cold, wet, or windy it might be!

Date:

Astronomy

Sep. 03, 2014 Rise Set
Actual Time 6:15 AM CDT 7:16 PM CDT
Civil Twilight 5:46 AM CDT 7:45 PM CDT
Nautical Twilight 5:12 AM CDT 8:18 PM CDT
Astronomical Twilight 4:37 AM CDT 8:53 PM CDT
Moon 3:00 PM CDT (9/3) 12:06 AM CDT (9/3)
Length of Visible Light 13h 58m
Length of Day
13h 01m
Waxing Gibbous, 64% of the Moon is Illuminated
Sep 3
Waxing Gibbous
Sep 8
Full
Sep 15
Last Quarter
Sep 24
New
Oct 1
First Quarter

Hourly Weather History & Observations

Time (CDT) Temp. Heat Index Dew Point Humidity Pressure Visibility Wind Dir Wind Speed Gust Speed Precip Events Conditions
12:15 AM 62.6 °F - 62.6 °F 100% 30.00 in 10.0 mi Calm Calm - N/A   Clear
12:35 AM 61.7 °F - 61.7 °F 100% 30.00 in 7.0 mi Calm Calm - N/A   Clear
12:55 AM 60.8 °F - 60.8 °F 100% 30.00 in 10.0 mi Calm Calm - N/A   Scattered Clouds
1:15 AM 61.2 °F - 61.2 °F 100% 29.99 in 4.0 mi Calm Calm - N/A   Scattered Clouds
1:35 AM 60.3 °F - 60.3 °F 100% 29.99 in 10.0 mi Calm Calm - N/A   Scattered Clouds
1:55 AM 60.1 °F - 60.1 °F 100% 29.99 in 10.0 mi Calm Calm - N/A   Clear
2:15 AM 59.7 °F - 59.7 °F 100% 29.99 in 2.0 mi Calm Calm - N/A   Mist
2:35 AM 59.4 °F - 59.4 °F 100% 29.99 in 4.0 mi Calm Calm - N/A   Scattered Clouds
2:55 AM 59.4 °F - 59.4 °F 100% 30.00 in 1.2 mi Calm Calm - N/A   Scattered Clouds
3:15 AM 59.4 °F - 59.4 °F 100% 30.00 in 4.0 mi Calm Calm - N/A   Scattered Clouds
3:35 AM 58.8 °F - 58.8 °F 100% 30.00 in 7.0 mi Calm Calm - N/A   Scattered Clouds
3:55 AM 59.2 °F - 59.2 °F 100% 30.00 in 3.0 mi Calm Calm - N/A   Clear
4:15 AM 56.8 °F - 56.8 °F 100% 30.00 in 0.2 mi Calm Calm - N/A Fog Fog
4:35 AM 58.1 °F - 58.1 °F 100% 30.01 in 0.5 mi Calm Calm - N/A Fog Fog
4:55 AM 57.4 °F - 57.4 °F 100% 30.01 in 7.0 mi Calm Calm - N/A   Clear
5:15 AM 57.4 °F - 57.4 °F 100% 30.01 in 4.0 mi Calm Calm - N/A   Scattered Clouds
5:35 AM 58.1 °F - 58.1 °F 100% 30.01 in 3.0 mi Calm Calm - N/A   Mist
5:55 AM 57.7 °F - 57.7 °F 100% 30.02 in 4.0 mi Calm Calm - N/A   Scattered Clouds
6:15 AM 57.4 °F - 57.4 °F 100% 30.03 in 2.0 mi Calm Calm - N/A   Scattered Clouds
6:35 AM 57.0 °F - 57.0 °F 100% 30.04 in 0.2 mi Calm Calm - N/A Fog Fog
6:55 AM 58.1 °F - 58.1 °F 100% 30.04 in 1.8 mi Calm Calm - N/A   Scattered Clouds
7:15 AM 59.9 °F - 59.9 °F 100% 30.05 in 4.0 mi Calm Calm - N/A   Scattered Clouds
7:35 AM 61.9 °F - 61.9 °F 100% 30.05 in 7.0 mi Calm Calm - N/A   Clear
7:55 AM 63.9 °F - 63.9 °F 100% 30.05 in 10.0 mi Calm Calm - N/A   Clear
8:15 AM - - - N/A% 30.05 in 10.0 mi Calm Calm - N/A   Clear
8:35 AM 68.7 °F - 65.8 °F 90% 30.05 in 10.0 mi Calm Calm - N/A   Clear
8:55 AM 70.7 °F - 64.8 °F 81% 30.05 in 10.0 mi Calm Calm - N/A   Clear
9:15 AM 72.5 °F - 63.0 °F 72% 30.05 in 10.0 mi Calm Calm - N/A   Clear
9:35 AM 73.6 °F - 62.6 °F 68% 30.06 in 10.0 mi Calm Calm - N/A   Clear
9:55 AM 74.5 °F - 62.4 °F 66% 30.06 in 10.0 mi Calm Calm - N/A   Clear
10:15 AM 75.2 °F - 60.4 °F 60% 30.06 in 10.0 mi Calm Calm - N/A   Clear
10:35 AM 76.1 °F - 62.4 °F 62% 30.05 in 10.0 mi SW 3.5 mph - N/A   Clear
10:55 AM 75.6 °F - 61.3 °F 61% 30.06 in 10.0 mi WSW 3.5 mph - N/A   Scattered Clouds
11:15 AM 76.6 °F - 60.8 °F 58% 30.07 in 10.0 mi WSW 6.9 mph - N/A   Scattered Clouds
11:35 AM 77.2 °F - 61.5 °F 58% 30.05 in 10.0 mi SW 8.1 mph - N/A   Scattered Clouds
11:55 AM 78.1 °F - 60.4 °F 54% 30.05 in 10.0 mi WSW 8.1 mph - N/A   Clear
12:15 PM 78.6 °F - 59.0 °F 51% 30.05 in 10.0 mi WSW 5.8 mph - N/A   Clear
12:35 PM 79.3 °F - 59.5 °F 51% 30.04 in 10.0 mi WSW 9.2 mph - N/A   Clear
12:55 PM 79.0 °F - 58.5 °F 49% 30.04 in 10.0 mi SW 6.9 mph - N/A   Clear
1:15 PM 79.7 °F - 58.3 °F 48% 30.04 in 10.0 mi SW 9.2 mph - N/A   Clear
1:35 PM 79.5 °F - 58.5 °F 48% 30.04 in 10.0 mi SW 9.2 mph - N/A   Clear
1:55 PM 79.7 °F - 57.9 °F 47% 30.05 in 10.0 mi WSW 9.2 mph - N/A   Clear
2:15 PM 79.2 °F - 57.7 °F 48% 30.04 in 10.0 mi WSW 4.6 mph - N/A   Clear
2:35 PM 80.6 °F 81.0 °F 58.6 °F 47% 30.04 in 10.0 mi SSW 5.8 mph - N/A   Scattered Clouds
2:55 PM 80.6 °F 81.0 °F 58.6 °F 47% 30.03 in 10.0 mi SSW 5.8 mph - N/A   Scattered Clouds
3:15 PM 80.6 °F 81.0 °F 58.8 °F 47% 30.03 in 10.0 mi South 5.8 mph - N/A   Clear
3:35 PM 80.4 °F 81.0 °F 58.8 °F 48% 30.02 in 10.0 mi SSW 3.5 mph - N/A   Clear
3:55 PM 80.6 °F 81.4 °F 60.3 °F 50% 30.01 in 10.0 mi SW 5.8 mph - N/A   Scattered Clouds
4:15 PM 80.8 °F 81.3 °F 59.4 °F 48% 30.01 in 10.0 mi WSW 5.8 mph - N/A   Scattered Clouds
4:35 PM 80.2 °F 80.9 °F 59.7 °F 49% 30.01 in 10.0 mi West 6.9 mph - N/A   Clear
4:55 PM 80.6 °F 81.2 °F 59.9 °F 49% 30.01 in 10.0 mi NNW 5.8 mph - N/A   Clear
5:15 PM 80.1 °F 80.9 °F 60.1 °F 50% 30.01 in 10.0 mi WSW 4.6 mph - N/A   Clear
5:35 PM 79.9 °F - 60.3 °F 51% 30.01 in 10.0 mi SW 5.8 mph - N/A   Clear
5:55 PM 79.2 °F - 61.5 °F 55% 30.01 in 10.0 mi SW 4.6 mph - N/A   Clear
6:15 PM 78.3 °F - 60.8 °F 55% 30.01 in 10.0 mi Calm Calm - N/A   Clear
6:35 PM 77.0 °F - 61.2 °F 58% 30.01 in 10.0 mi South 3.5 mph - N/A   Clear
6:55 PM 75.7 °F - 61.7 °F 62% 30.01 in 10.0 mi South 3.5 mph - N/A   Clear
7:15 PM 74.5 °F - 61.7 °F 64% 30.01 in 10.0 mi SSE 3.5 mph - N/A   Clear
7:35 PM 72.5 °F - 62.6 °F 71% 30.01 in 10.0 mi Calm Calm - N/A   Clear
7:55 PM 71.6 °F - 62.4 °F 73% 30.01 in 10.0 mi South 3.5 mph - N/A   Clear
8:15 PM 71.2 °F - 61.9 °F 72% 30.02 in 10.0 mi South 5.8 mph - N/A   Clear
8:35 PM 71.4 °F - 61.2 °F 70% 30.03 in 10.0 mi South 3.5 mph - N/A   Clear
8:55 PM 70.5 °F - 61.7 °F 74% 30.03 in 10.0 mi SSE 3.5 mph - N/A   Clear
9:15 PM 69.8 °F - 61.7 °F 75% 30.03 in 10.0 mi SSE 4.6 mph - N/A   Clear
9:35 PM 69.3 °F - 61.7 °F 77% 30.03 in 10.0 mi South 3.5 mph - N/A   Clear
9:55 PM 68.9 °F - 61.5 °F 77% 30.03 in 10.0 mi SSE 5.8 mph - N/A   Clear
10:15 PM 68.5 °F - 61.3 °F 78% 30.03 in 10.0 mi South 4.6 mph - N/A   Clear
10:55 PM 68.0 °F - 60.8 °F 78% 30.03 in 10.0 mi SSE 3.5 mph - N/A   Clear
11:15 PM 67.5 °F - 60.6 °F 79% 30.03 in 10.0 mi South 3.5 mph - N/A   Clear
11:35 PM 66.7 °F - 60.3 °F 80% 30.03 in 10.0 mi South 5.8 mph - N/A   Clear
11:55 PM 66.9 °F - 60.3 °F 79% 30.02 in 10.0 mi SSE 5.8 mph - N/A   Clear